Погода в Онеге

Погода в Онеге : погода сейчас, прогноз погоды и архив. Всё, что Вы хотите узнать о погоде в Онеге!

Хотите узнать прогноз погоды в Онеге? Тогда Вам сюда: Погода в Онеге

Поиск расширенной информации на нашем сайте:

Другие новости

Новости СМИ2

Главная страница сайта

Новости сайта

03.07.2017

Напоминаем, что на нашем специализированном сайте Метеоцентр.Азия вы можете получить высокодетализированные автоматические прогнозы погоды по пунктам России, СНГ и мира в авиационном формате (включающие направление и скорость ветра, видимость, явления погоды, количество и форму облачности, нижнюю и верхнюю границу облачности).

Рекомендуем: фальцевая кровля из рулонного материала.

Погода в Онеге - сегодня

Время (UTC), дата Ветер
(°,м/с) 
Видим.   Явления Облачность Т
(°С)
Тd
(°С)
f(%) Тe
(°С)
Pmin
(гПа)
dP
(гПа)
Po
(мм)
O2
(г/м3)
Тmin Tmax R s Состояние
почвы
18 19.07.18 080 (В) 3{10}  20000 м    ясно 
+24.4 +11.4 44 +27  1018  -0.1  762  280           
21 19.07.18 070 (В) 20000 м    10/0 верхняя 
[Cc]
+20.6 +12.3 59 +25  1018.6  0.6  763  284           
00 20.07.18 090 (В) 20000 м    ясно 
+19.3 +12.5 65 +24  1019  0.4  763  285           
06 20.07.18 080 (В) 20000 м    ясно 
+24.9 +14.1 51 +32  1018.5  -0.4  763  279           
09 20.07.18 100 (В) 5{12}  20000 м    3/1 1000 м средняя, верхняя 
[Cu hum|Ac trans|Ci fib]
+27.3 +14.4 45 +35  1017.6  -0.9  762  276           
18 20.07.18 090 (В) 20000 м    3/0 средняя, верхняя 
[Ac trans|Ci sp]
+23.1 +12.7 52 +28  1015.7  0.2  761  280           
21 20.07.18 100 (В) 20000 м    1/0 средняя 
[Ac trans]
+22 +12.4 54 +26  1016  0.3  761  281           
00 21.07.18 100 (В) 20000 м    1/0 средняя 
[Ac trans]
+20.3 +12.6 61 +25  1016.1  761  283           
03 21.07.18 110 (В) 20000 м    3/0 средняя 
[Ac trans]
+21.3 +14.5 65 +29  1016.1  0.1  761  282  +20.3        сухая 
06 21.07.18 100 (В) 20000 м    1/0 средняя 
[Ac trans]
+24.7 +16 58 +35  1015.5  -0.6  761  278           
09 21.07.18 130 (ЮВ) 20000 м    4/1 1000 м средняя, верхняя 
[Cu hum|Ac trans|Ci fib]
+27.5 +15.3 47 +36  1014.7  -0.8  760  275           
12 21.07.18 130 (ЮВ) 20000 м    3/1 1000 м средняя, верхняя 
[Cu med, cong|Ac cuf|Ci fib]
+27.9 +14.4 44 +35  1013.9  -0.8  759  275           
18 21.07.18 130 (ЮВ) 1{10}  20000 м    1/0 верхняя 
[Ci fib]
+25.4 +13.9 49 +32  1013  0.1  759  277           
21 21.07.18 120 (ЮВ) 20000 м    1/0 верхняя 
[Ci fib]
+22.2 +12.8 55 +27  1013.7  0.7  759  280           
00 22.07.18 100 (В) 20000 м    1/0 средняя 
[Ac trans]
+18.2 +13.3 73 +25  1013.7  759  284           
03 22.07.18 120 (ЮВ) 20000 м    8/0 средняя 
[Ac trans]
+19.7 +13.6 68 +27  1013.7  759  283  +18.1        сухая 
06 22.07.18 150 (ЮВ) 3{10}  20000 м    4/0 средняя, верхняя 
[Ac lent|Ci fib]
+23.8 +15.7 60 +33  1013  -0.7  759  278           
12 22.07.18 160 (Ю) 4{13}  20000 м    8/5 600 м кучево-дожд., средняя, верхняя 
[Cb cap|Ac lent|Ci sp]
+26.4 +15.5 51 +36  1012.5  -0.4  758  275           
18 22.07.18 150 (ЮВ) 2{10}  20000 м    9/5 1000 м средняя, верхняя 
[Sc|Ac lent|Ci fib]
+24.2 +15.7 59 +34  1013.1  0.4  759  278           
21 22.07.18 140 (ЮВ) 20000 м    8/1 1000 м средняя, верхняя 
[Sc|Ac trans|Ci fib]
+22.2 +15.6 66 +32  1013.8  0.7  759  280           
00 23.07.18 130 (ЮВ) 20000 м    8/0 средняя, верхняя 
[Ac lent|Ci sp]
+19.3 +15 76 +29  1014.4  0.6  760  283           
03 23.07.18 130 (ЮВ) 20000 м    9/3 1000 м средняя 
[Cu Sc|Ac trans]
+20.4 +14.8 70 +28  1014.3  -0.1  760  282  +18.9        сухая 
06 23.07.18 150 (ЮВ) 20000 м    6/0 средняя, верхняя 
[Ac trans|Ci sp]
+24.6 +16.3 60 +35  1014.1  -0.2  760  277           
09 23.07.18 180 (Ю) 20000 м    9/4 1000 м средняя, верхняя 
[Cu med, cong|Ac trans|Ci sp]
+26.9 +14.4 46 +34  1013.9  -0.2  759  276           
12 23.07.18 200 (Ю) 20000 м    9/3 1000 м средняя, верхняя 
[Cu med, cong|Ac trans|Ci sp]
+28.1 +14 42 +35  1013.9  0.1  759  275           
Время (UTC), дата Ветер
(°,м/с) 
Видим.   Явления Облачность Т
(°С)
Тd
(°С)
f(%) Тe
(°С)
Pmin
(гПа)
dP
(гПа)
Po
(мм)
O2
(г/м3)
Тmin Tmax R s Состояние
почвы

Для получения пояснительной информации подведите курсор к названию столбца.

ПОГОДА в Онеге - архив

Всё, что Вы хотите узнать о погоде в Онеге - удобно и подробно!

Выберите нужную дату (начиная с 1 января 2015* года) и нажмите кнопку "Найти".
Будут отображены архивные сводки погоды по пункту Онега, начиная с указанной даты.


Отображать данные в формате CSV (для использования в таблицах Excel)


Внимание! Наш архив погоды предназначен исключительно для личного некоммерческого использования в познавательных целях. Если Вам необходимы официальные справки о состоянии погоды (для производственных, юридических, коммерческих и т.п. целей), обращайтесь в органы Росгидромета.

*Примечание: данная дата относится к архиву по метеостанциям СССР (Россия, СНГ, Балтия).
Архив по метеостанциям Зарубежной Европы и Азии (кроме Китая) хранится 10 дней, по другим регионам земного шара (Китай, Африка, Америка, Австралия, Океания) - 1 день.

Онега - район местоположения метеостанции


Название, широта, долгота, высота метеостанции:
Онега 63.9°ш. 38.1°д. 13 м над ур. моря [Российская Федерация]

Дополнительная информация

В oтличие oт бoльшинства пoгoдных сайтoв мы публикуем пoдрoбную метеoинфoрмацию в детальнoм прoфессиoнальнoм фoрмате.

Характеристики температуры и влажнoсти вoздуха измеряются на высoте 2 м в тени вдали oт зданий и деревьев.
Скoрoсть ветра измеряется на высoте 10 м (на урoвне рoста челoвека скoрoсть ветра ниже в 1.5-2 раза). Если метеoстанция нахoдится в гoрoде или в лесу, тo скoрoсть ветра занижена на 2-4 м/с пo сравнению с oткрытым местoм. Скoрoсть ветра над акватoриями крупных рек и oзёр, а также на вершинах хoлмoв на 2-5 м/с выше, чем в oбычных услoвиях.
Атмoсфернoе давление в разных тoчках местнoсти мoжет значительнo oтличаться oт давления на метеoстанции, в зависимoсти oт услoвий рельефа (при пoдъёме на 10 м давление пoнижается примернo на 1 мм рт.ст.).